This is the latest recevied weather packets stored in our database for station/object HS3UAA-1. If no packets are shown the sender has not sent any weather packets the latest 10 day(s).
| Time | Temp. | Humidity | Pressure | Rain* | Wind** | Luminosity | Snow |
|---|---|---|---|---|---|---|---|
| 1778116168 | 27.78° C | 60% | 997 hPa | - | - | 0 W/m² | - |
| 1778115846 | 27.78° C | 61% | 997 hPa | - | - | 0 W/m² | - |
| 1778115507 | 27.78° C | 61% | 997 hPa | - | - | 0 W/m² | - |
| 1778068607 | 32.78° C | 44% | 995 hPa | - | - | 0 W/m² | - |
| 1778068285 | 32.78° C | 44% | 995 hPa | - | - | 0 W/m² | - |
| 1778067713 | 32.78° C | 44% | 994 hPa | - | - | 0 W/m² | - |
| 1778067391 | 33.33° C | 43% | 994 hPa | - | - | 0 W/m² | - |
| 1778067069 | 33.33° C | 43% | 995 hPa | - | - | 0 W/m² | - |
| 1778066747 | 32.78° C | 44% | 994 hPa | - | - | 0 W/m² | - |
| 1778066425 | 32.78° C | 43% | 994 hPa | - | - | 0 W/m² | - |
| 1778066103 | 32.78° C | 43% | 995 hPa | - | - | 0 W/m² | - |
| 1778065781 | 32.78° C | 43% | 994 hPa | - | - | 0 W/m² | - |
| 1778065362 | 32.22° C | 45% | 994 hPa | - | - | 0 W/m² | - |
| 1778065040 | 31.67° C | 45% | 994 hPa | - | - | 0 W/m² | - |
| 1778064718 | 31.11° C | 46% | 994 hPa | - | - | 0 W/m² | - |
| 1778064396 | 30.56° C | 48% | 994 hPa | - | - | 0 W/m² | - |
| 1778064074 | 30.56° C | 48% | 994 hPa | - | - | 0 W/m² | - |
| 1778063751 | 30° C | 49% | 994 hPa | - | - | 0 W/m² | - |
| 1778063429 | 28.33° C | 51% | 994 hPa | - | - | 0 W/m² | - |
| 1778063107 | 27.78° C | 50% | 994 hPa | - | - | 0 W/m² | - |
| 1778062785 | 27.78° C | 50% | 994 hPa | - | - | 0 W/m² | - |
| 1778062463 | 27.78° C | 49% | 994 hPa | - | - | 0 W/m² | - |
| 1778062141 | 28.33° C | 50% | 994 hPa | - | - | 0 W/m² | - |
| 1778061819 | 28.33° C | 50% | 994 hPa | - | - | 0 W/m² | - |
| 1778059297 | 27.78° C | 46% | 993 hPa | - | - | 0 W/m² | - |
* Rain since midnight (hover to see other rain measurements)
** Current wind speed in m/s (hover to see current wind gust speed)